Погода в Инчха

Россия / Республика Дагестан     43°05′48″N   46°46′04″E
темп.,
°C
ветер,
м/с
пор.,
м/с
влажн.,
%
обл.,
%
осадки,
мм/ч
давл.,
гПа
погр.,
м
22 октября, пт
пт2200:00+8ююз32510 0.0 102318
03:00+8ююз32470 0.0 102216
06:00+9юз22420 0.0 102113
09:00+14вюв12340 0.0 1020139
12:00+17св21330 0.0 1019363
15:00+16ссв21450 0.0 1019265
18:00+12юз11610 0.0 102010
21:00+12юз11570 0.0 102010
23 октября, сб
сб2300:00+11зюз11520 0.0 102010
03:00+10зюз21470 0.0 102011
06:00+9юз22460 0.0 102011
09:00+14ссз11390 0.0 1020215
12:00+16ссв21390 0.0 1019603
15:00+15с22460 0.0 1018544
18:00+11зюз22620 0.0 101915
21:00+10зюз11630 0.0 101913
24 октября, вс
вс2400:00+10зюз22610 0.0 101812
03:00+9зюз32550 0.0 101921
06:00+9зюз32540 0.0 101919
09:00+13сз23442 0.0 1019414
12:00+15с334387 0.0 10181131
15:00+14ссв2149100 0.0 1017728
18:00+10юв116454 0.0 101813
21:00+9ю11676 0.0 101710
25 октября, пн
пн2500:00+8з22705 0.0 101613
03:00+7з337488 0.0 101746
06:00+6зсз4682100 0.0 1019395
09:00+3сз4796100 1.3 1023505
12:00+2сз4796100 0.6 1022753
15:00+2зсз51096100 1.4 1024591
18:00+1зсз8159698 0.9 10271211
21:000з7137652 1.3 1030968
26 октября, вт
вт2600:00−1з5118127 0.0 1030802
03:00−2з588425 0.0 1031369
06:00−2з598741 0.0 1032464
09:00+1зсз5872100 0.0 1032636
12:00+3сз68634 0.0 1031839
15:00+3сз56603 0.0 1031775
18:000з23763 0.0 103355
21:00−1зюз11730 0.0 103313